Back to catalog

JILIN-1 GAOFEN 03D-08

AliveSciencePO
NORAD 54251·PAYLOAD·🇨🇳 China
This satellite name has not been confirmed by official sources yet.

Launched Nov 16, 2022 from Jiuquan Satellite Launch Center

Loading…

Next Passes (next 24 hours)

TLE

FreshSource: Space-Track

Epoch: Sep 14, 2026, 14:25 UTC

1 54251U 22155A   26257.60109438  .00083505  00000-0  54047-3 0  9999
2 54251  97.6320  50.9727 0002102   5.1950 354.9336 15.75810947213849

Track JILIN-1 GAOFEN 03D-08 in real time with AllMySat

Download on the App Store